Regional Weather Roundup
Issued by NWS Charleston, SC

Current Version | Previous Version | Text Only | Print | Product List | Glossary Off
Versions: 1 2 3 4 5 6 7 8 9 10 11 12 13 14 15 16 17 18 19 20 21 22 23 24 25 26 27 28 29 30 31 32 33 34 35 36 37 38 39 40 41 42 43 44 45 46 47 48 49 50

000
ASUS42 KCHS 232327
RWRCHS

Regional Weather Roundup
National Weather Service Charleston SC
700 PM EDT MON APR 23 2018

NOTE: "fair" indicates few or no clouds below 12,000 feet with no
significant weather and/or obstructions to visibility.

Not all stations are quality controlled. Use data with caution,
especially dewpoint observations.

SCZ027-030-031-034>040-042>050-240000-
...Southeast South Carolina...

CITY           SKY/WX    TMP DP  RH WIND       PRES   REMARKS
N Charleston   LGT RAIN  67  65  93 SE33G46   29.96F FOG
Waterfront Prk   N/A     66  65  96 SE26      29.81F
Mount Pleasant CLOUDY    64  64 100 E17G29    29.98S FOG
Johns Island   LGT RAIN  66  66 100 E21G32    29.97R VSB 1
Pinopolis        N/A     64  64 100 E12G18    29.89F
Moncks Corner  RAIN      63  61  94 E12G21    29.97F
Summerville    HVY RAIN  64  63  94 E8G16     29.96S
Beaufort MCAS  CLOUDY    69  68  96 SE9G22    29.94S
Beaufort Arpt  MOCLDY    68  64  88 SE7       29.95R FOG
Hilton Head Is PTSUNNY   68  66  94 SE12      29.95S
Walterboro     LGT RAIN  64  64 100 SE7       29.96F
Allendale      CLOUDY    68  66  94 VRB7      29.92S

...Southern Midlands and Pee Dee...

CITY           SKY/WX    TMP DP  RH WIND       PRES   REMARKS
Georgetown     CLOUDY    63  63 100 E21G28    30.05S
Kingstree      LGT RAIN  63  61  94 E17G23    30.03S
Orangeburg     LGT RAIN  64  62  93 E8        29.97F FOG
Barnwell       CLOUDY    68  64  88 E12       29.94S
Aiken          CLOUDY    63  63 100 E13G20    29.98S
Manning        RAIN      59  59 100 SE12G23   29.99F
Columbia       LGT RAIN  65  64  97 E13       29.99F FOG
Sumter         LGT RAIN  63  61  94 E16G28    29.97F
Florence       CLOUDY    64  59  83 E18G35    30.06F
Myrtle Beach   CLOUDY    63  61  93 E16G26    30.10F
N Myrtle Beach LGT RAIN  64  60  87 E17G25    30.10F

$$

GAZ063-065-086>088-099>101-113>116-118-119-134>141-150-240000-
...Southeast Georgia...

CITY           SKY/WX    TMP DP  RH WIND       PRES   REMARKS
Savannah Arpt  CLOUDY    70  68  93 SE13      29.93S
Hunter AAF     CLOUDY    70  66  88 SE10      29.90
Fort Stewart   LGT RAIN  70  68  94 SE9       29.89S
Statesboro     PTSUNNY   73  65  76 SE7       29.90S
Sylvania       MOCLDY    72  70  94 SE6       29.91F
Claxton        FAIR      74  70  88 E7        29.89F

...CSRA, Central and far Southeast Georgia...

CITY           SKY/WX    TMP DP  RH WIND       PRES   REMARKS
Thomson        LGT RAIN  65  64  96 SE10G17   29.95F
Augusta-Bush   CLOUDY    69  66  90 E13       29.91F
Augusta-Daniel CLOUDY    69  65  86 E10       29.93S
Swainsboro     DRIZZLE   64  63  94 NE6       29.88F
Vidalia        PTSUNNY   73  70  88 SE12      29.84F
Eastman        FAIR      77  60  57 E6        29.88S
Hazlehurst     FAIR      81  64  57 S5        29.85S
Alma           FAIR      80  68  66 SE8       29.86S
Waycross       FAIR      80  69  71 S8        29.88S
Jesup          NOT AVBL
Baxley         FAIR      75  68  78 SE7       29.87S
Brunswick      CLOUDY    72  68  88 SE6       29.94R
Saint Simons   CLOUDY    70  69  97 MISG      29.93S

$$

SCZ027-028-034-036>038-045-046-048>050-GAZ119-141-240000-
...Lake and Supplemental Coastal Observations...

STATION/POSITION TIME  TEMP    WIND        PRES    WAVE   SWELL
                       AIR SEA DIR/SP/G            HT/PER HT/PER/DIR
                 (UTC) (F)     (DEG/KT/KT) (MB)    (FT/S) (FT/S/D)
Winyah Bay       2245   64     100/ 19     1017.0F
Lake Murray      2220   63      90/ 16/ 19 1015.6
ACE Basin NERRS  2245   67     350/  9       N/A
Fort Pulaski     2300   68 65  140/  5/  8 1014.1
Sapelo Island    2300   70     140/  7     1013.0

$$

ANZ835-935-AMZ111-154-330-350-352-354-370-450-454-472-240000-
...C-MAN and Buoy Observations...

STATION/POSITION TIME  TEMP    WIND        PRES    WAVE   SWELL
                       AIR SEA DIR/SP/G            HT/PER HT/PER/DIR
                 (UTC) (F)     (DEG/KT/KT) (MB)    (FT/S) (FT/S/D)
Buoy 41004       2310   67 67  110/ 29/ 39 1015.1
Buoy 41008       2250   67 65  130/ 14/ 16 1013.1R   6/ 9   5/100/ 9
Folly Beach CMAN NOT AVBL
Capers Nearshore 2308   66     110/ 27/ 39 1015.1F
Fripp Nearshore  2208   66 64  130/ 16/ 23 1013.4F


STATION/POSITION TIME  TEMP    WIND        PRES    WAVE   SWELL
                       AIR SEA DIR/SP/G            HT/PER HT/PER/DIR
                 (UTC) (F)     (DEG/KT/KT) (MB)    (FT/S) (FT/S/D)
5E St. Marys GA  2300      67                N/A     5/ 9   2/100/11
Frying Pan Buoy  2310   68 69  110/ 29/ 37 1020.2
Buoy 41025       2310   67 73  110/ 19/ 25 1026.0
Cape Lookout NC  NOT AVBL
Buoy 41002       2310   69 72  110/ 23/ 29 1022.5
Buoy 41010       2310   72 75  110/ 25/ 31 1016.2
St Augustine FL  2300   69 69  140/ 11/ 12 1013.4R


$$



USA.gov is the U.S. government's official web portal to all federal, state and local government web resources and services.